Probability
0 0 0 0 0 0 0 0 0 0 0 0 0 0 0 0 0 0 0 0 0 0 0 0 0 0 0 0 0 0 0 0 0 0 0 0 0 0 0 0 0 0 0 0
0 0 0 0 0 0 0 0 0 0 0 0 0 0 0 0 0 0 0 0 0 0 0 0 0 0 0 0 0 0 0 0 0 0 0 0 0 0 0 0 0 0 0 0
0 0 0 0 0 0 0 0 0 0 0 0 0 0 0 0 0 0 0 0 0 0 0 0 0 0 0 0 0 0 0 0 0 0 0 0 0 0 0 0 0 0 0 0
0 0 0 0 0 0 0 0 0 0 0 0 0 0 0 0 0 0 0 0 0 0 0 0 0 0 0 0 0 0 0 0 0 0 0 0 0 0 0 0 0 0 0 0
0 0 0 0 0 0 0 0 0 0 0 0 0 0 0 0 0 0 0 0 0 0 0 0 0 0 0 0 0 0 0 0 0 0 0 0 0 0 0 0 0 0 0 0
0 0 0 0 0 0 0 0 0 0 0 0 0 0 0 0 0 0 0 0 0 0 0 0 0 0 0 0 0 0 0 0 0 0 0 0 0 0 0 0 0 0 0 0
0 0 0 0 0 0 0 0 0 0 0 0 0 0 0 0 0 0 0 0 0 0 0 0 0 0 0 0 0 0 0 0 0 0 0 0 0 0 0 0 0 0 0 0
0 0 0 0 0 0 0 0 0 0 0 0 0 0 0 0 0 0 0 0 0 0 0 0 0 0 0 0 0 0 0 0 0 0 0 0 0 0 0 0 0 0 0 0
0 0 0 0 0 0 0 0 0 0 0 0 0 0 0 0 0 0 0 0 0 0 0 0 0 0 0 0 0 0 0 0 0 0 0 0 0 0 0 0 0 0 0 0
0 0 0 0 0 0 0 0 0 0 0 0 0 0 0 0 0 0 0 0 0 0 0 0 0 0 0 0 0 0 0 0 0 0 0 0 0 0 0 0 0 0 0 0
0 0 0 0 0 0 0 0 0 0 0 0 0 0 0 0 0 0 0 0 0 0 0 0 0 0 0 0 0 0 0 0 0 0 0 0 0 0 0 0 0 0 0 0
0 0 0 0 0 0 0 0 0 0 0 0 0 0 0 0 0 0 0 0 0 0 0 0 0 0 0 0 0 0 0 0 0 0 0 0 0 0 0 0 0 0 0 0
0 0 0 0 0 0 0 0 0 0 0 0 0 0 0 0 0 0 0 0 0 0 0 0 0 0 0 0 0 0 0 0 0 0 0 0 0 0 0 0 0 0 0 0
0 0 0 0 0 0 0 0 0 0 0 0 0 0 0 0 0 0 0 0 0 0 0 0 0 0 0 0 0 0 0 0 0 0 0 0 0 0 0 0 0 0 0 0
0 0 0 0 0 0 0 0 0 0 0 0 0 0 0 0 0 0 0 0 0 0 0 0 0 0 0 0 0 0 0 0 0 0 0 0 0 0 0 0 0 0 0 0
0 0 0 0 0 0 0 0 0 0 0 0 0 0 0 0 0 0 0 0 0 0 0 0 0 0 0 0 0 0 0 0 0 0 0 0 0 0 0 0 0 0 0 0
0 0 0 0 0 0 0 0 0 0 0 0 0 0 0 0 0 0 0 0 0 0 0 0 0 0 0 0 0 0 0 0 0 0 0 0 0 0 0 0 0 0 0 0
0 0 0 0 0 0 0 0 0 0 0 0 0 0 0 0 0 0 0 0 0 0 0 0 0 0 0 0 0 0 0 0 0 0 0 0 0 0 0 0 0 0 0 0
0 0 0 0 0 0 0 0 0 0 0 0 0 0 0 0 0 0 0 0 0 0 0 0 0 0 0 0 0 0 0 0 0 0 0 0 0 0 0 0 0 0 0 0
0 0 0 0 0 0 0 0 0 0 0 0 0 0 0 0 0 0 0 0 0 0 0 0 0 0 0 0 0 0 0 0 0 0 0 0 0 0 0 0 0 0 0 0
0 0 0 0 0 0 0 0 0 0 0 0 0 0 0 0 0 0 0 0 0 0 0 0 0 0 0 0 0 0 0 0 0 0 0 0 0 0 0 0 0 0 0 0
0 0 0 0 0 0 0 0 0 0 0 0 0 0 0 0 0 0 0 0 0 0 0 0 0 0 0 0 0 0 0 0 0 0 0 0 0 0 0 0 0 0 0 0
0 0 0 0 0 0 0 0 0 0 0 0 0 0 0 0 0 0 0 0 0 0 0 0 0 0 0 0 0 0 0 0 0 0 0 0 0 0 0 0 0 0 0 0
0 0 0 0 0 0 0 0 0 0 0 0 0 0 0 0 0 0 0 0 0 0 0 0 0 0 0 0 0 0 0 0 0 0 0 0 0 0 0 0 0 0 0 0
0 0 0 0 0 0 0 0 0 0 0 0 0 0 0 0 0 0 0 0 0 0 0 0 0 0 0 0 0 0 0 0 0 0 0 0 0 0 0 0 0 0 0 0
0 0 0 0 0 0 0 0 0 0 0 0 0 0 0 0 0 0 0 0 0 0 0 0 0 0 0 0 0 0 0 0 0 0 0 0 0 0 0 0 0 0 0 0
0 0 0 0 0 0 0 0 0 0 0 0 0 0 0 0 0 0 0 0 0 0 0 0 0 0 0 0 0 0 0 0 0 0 0 0 0 0 0 0 0 0 0 0
Height
5583 5584 5584 5585 5586 5587 5586 5587 5587 5589 5589 5591 5589 5589 5589 5589 5589 5589 5589 5588 5588 5588 5588 5587 5587 5586 5586 5585 5585 5584 5584 5583 5582 5581 5581 5580 5579 5578 5577 5576 5574 5573 5572 5570
5576 5577 5576 5577 5579 5580 5580 5580 5580 5580 5582 5583 5581 5580 5580 5580 5580 5580 5580 5580 5579 5579 5579 5578 5578 5577 5576 5576 5575 5574 5574 5573 5572 5571 5570 5569 5568 5568 5567 5565 5564 5563 5561 5560
5569 5570 5569 5571 5574 5573 5573 5573 5573 5572 5575 5574 5573 5573 5573 5573 5572 5572 5571 5571 5571 5570 5570 5569 5569 5568 5567 5567 5566 5565 5564 5563 5562 5561 5560 5559 5558 5557 5556 5555 5554 5553 5551 5549
5562 5563 5562 5569 5566 5566 5565 5566 5565 5565 5565 5565 5565 5564 5564 5564 5564 5563 5563 5562 5562 5561 5561 5560 5559 5559 5558 5557 5556 5555 5554 5553 5552 5551 5550 5549 5548 5548 5547 5546 5544 5543 5541 5539
5554 5554 5555 5560 5559 5558 5557 5558 5557 5556 5556 5556 5556 5556 5556 5556 5555 5555 5554 5553 5553 5553 5552 5551 5551 5550 5549 5548 5547 5546 5545 5544 5542 5542 5541 5540 5539 5538 5537 5536 5535 5533 5531 5529
5547 5546 5548 5553 5551 5549 5549 5549 5549 5548 5547 5547 5547 5548 5549 5547 5546 5546 5545 5545 5544 5544 5543 5542 5542 5541 5540 5539 5538 5537 5536 5535 5534 5533 5532 5531 5530 5529 5528 5527 5526 5524 5522 5520
5540 5539 5540 5543 5542 5541 5542 5542 5540 5539 5539 5539 5539 5540 5540 5538 5538 5537 5536 5536 5535 5535 5534 5533 5533 5532 5531 5530 5530 5529 5528 5527 5526 5525 5524 5523 5522 5521 5520 5519 5517 5515 5514 5512
5533 5532 5536 5535 5533 5534 5533 5532 5531 5531 5530 5530 5530 5530 5530 5530 5529 5528 5527 5527 5526 5526 5525 5524 5524 5523 5523 5522 5522 5521 5520 5520 5519 5518 5517 5516 5515 5513 5512 5511 5509 5507 5506 5504
5527 5528 5528 5526 5525 5525 5524 5524 5523 5523 5523 5523 5522 5522 5522 5521 5520 5519 5518 5518 5517 5517 5516 5516 5516 5515 5515 5514 5514 5514 5513 5513 5512 5511 5510 5509 5508 5506 5505 5504 5502 5500 5499 5497
5519 5520 5519 5518 5517 5517 5516 5516 5516 5515 5515 5515 5514 5514 5513 5512 5511 5510 5509 5509 5508 5508 5508 5508 5508 5508 5507 5507 5507 5507 5507 5506 5505 5504 5503 5502 5501 5500 5499 5497 5495 5494 5492 5490
5512 5513 5511 5511 5510 5509 5508 5508 5508 5508 5508 5507 5507 5506 5505 5504 5503 5502 5501 5500 5500 5500 5500 5500 5500 5500 5500 5500 5501 5501 5500 5500 5499 5498 5497 5496 5495 5494 5493 5491 5489 5488 5486 5483
5506 5506 5504 5504 5503 5502 5502 5501 5501 5500 5500 5500 5499 5498 5497 5496 5495 5494 5493 5492 5492 5492 5492 5492 5493 5493 5493 5494 5494 5495 5494 5494 5493 5492 5491 5491 5489 5488 5487 5485 5483 5482 5480 5478
5500 5499 5498 5497 5496 5495 5495 5495 5494 5493 5492 5492 5491 5490 5489 5488 5487 5487 5486 5485 5485 5485 5485 5486 5486 5487 5487 5488 5488 5488 5488 5488 5487 5486 5486 5485 5484 5483 5482 5480 5478 5476 5474 5472
5494 5493 5492 5492 5491 5490 5489 5488 5487 5486 5485 5484 5483 5482 5481 5481 5480 5480 5479 5479 5479 5479 5480 5480 5480 5481 5481 5482 5482 5482 5482 5482 5481 5481 5480 5480 5479 5478 5477 5475 5474 5472 5470 5467
5490 5488 5487 5487 5485 5484 5483 5482 5481 5480 5479 5477 5476 5476 5475 5474 5474 5474 5474 5474 5474 5474 5474 5475 5475 5475 5476 5476 5477 5477 5477 5476 5476 5476 5475 5474 5474 5473 5472 5471 5469 5468 5465 5463
5484 5483 5482 5481 5480 5478 5477 5476 5475 5474 5472 5472 5471 5470 5470 5469 5469 5469 5469 5469 5470 5470 5470 5470 5471 5471 5471 5471 5472 5472 5471 5471 5471 5471 5470 5470 5469 5468 5467 5466 5465 5463 5462 5459
5479 5478 5477 5475 5474 5473 5471 5470 5469 5468 5467 5466 5466 5465 5465 5465 5465 5465 5465 5465 5466 5466 5466 5466 5466 5466 5467 5467 5467 5467 5467 5466 5466 5466 5466 5465 5465 5464 5463 5462 5461 5459 5458 5456
5474 5472 5471 5470 5468 5467 5466 5465 5464 5464 5463 5462 5462 5461 5461 5461 5461 5461 5461 5461 5461 5462 5462 5462 5462 5462 5462 5463 5463 5462 5462 5462 5462 5462 5461 5461 5460 5460 5459 5458 5456 5455 5453 5452
5468 5467 5466 5465 5463 5462 5461 5461 5460 5459 5459 5458 5458 5457 5457 5457 5457 5457 5457 5457 5457 5458 5458 5458 5458 5459 5458 5458 5458 5458 5458 5458 5458 5457 5457 5456 5456 5455 5454 5453 5452 5451 5449 5448
5463 5462 5461 5460 5459 5458 5457 5457 5456 5455 5454 5454 5453 5453 5453 5453 5453 5453 5453 5453 5453 5453 5454 5454 5454 5454 5454 5454 5454 5454 5454 5454 5453 5453 5453 5452 5452 5451 5450 5449 5448 5447 5445 5444
5459 5457 5456 5455 5454 5454 5453 5452 5452 5451 5451 5450 5449 5449 5449 5449 5449 5449 5450 5450 5449 5449 5449 5450 5450 5450 5450 5450 5450 5450 5450 5450 5449 5449 5449 5448 5448 5447 5446 5445 5444 5443 5441 5440
5454 5453 5452 5451 5450 5449 5449 5448 5448 5447 5446 5446 5445 5445 5445 5445 5445 5445 5446 5446 5445 5445 5445 5445 5446 5446 5446 5446 5446 5446 5446 5446 5446 5445 5445 5444 5444 5443 5442 5441 5440 5439 5438 5436
5449 5448 5447 5446 5445 5444 5444 5444 5443 5443 5442 5441 5441 5441 5441 5441 5441 5442 5442 5442 5441 5441 5441 5441 5441 5442 5442 5442 5442 5442 5442 5442 5441 5441 5441 5440 5440 5439 5438 5437 5436 5435 5434 5433
5444 5443 5442 5441 5440 5440 5439 5439 5438 5438 5437 5437 5437 5437 5437 5437 5437 5437 5437 5437 5437 5437 5437 5437 5437 5438 5438 5438 5438 5438 5438 5438 5437 5437 5437 5436 5436 5436 5435 5434 5433 5432 5430 5429
5439 5438 5437 5436 5436 5435 5435 5434 5433 5433 5433 5432 5432 5432 5432 5433 5433 5433 5433 5433 5433 5433 5433 5433 5433 5434 5434 5434 5434 5434 5433 5433 5433 5433 5433 5433 5432 5432 5431 5430 5429 5428 5427 5426
5434 5433 5432 5431 5431 5430 5430 5429 5429 5429 5428 5428 5428 5428 5428 5428 5429 5429 5429 5429 5429 5429 5429 5429 5429 5429 5429 5429 5429 5429 5429 5429 5429 5429 5429 5429 5428 5428 5427 5426 5426 5425 5424 5423
5429 5428 5427 5427 5426 5426 5425 5425 5424 5424 5424 5423 5423 5424 5424 5424 5424 5425 5425 5425 5425 5425 5425 5425 5425 5425 5425 5425 5425 5425 5425 5425 5425 5425 5424 5424 5424 5424 5423 5423 5422 5421 5421 5420
Wind_Speed
26 26 27 27 27 27 28 29 30 28 28 26 28 29 29 29 30 30 30 31 32 32 33 33 34 34 34 34 34 35 35 36 37 37 38 38 38 38 39 39 39 39 39 40
25 26 27 27 27 27 28 29 29 29 27 26 28 29 29 29 29 29 29 30 31 31 32 32 32 33 33 33 34 35 35 36 36 36 36 37 37 37 37 37 37 38 38 38
26 26 27 28 26 27 27 28 29 30 28 28 29 29 29 29 29 29 29 29 30 31 31 31 31 32 32 33 33 34 34 35 35 35 35 35 35 35 35 35 36 36 37 37
27 27 28 26 26 27 27 28 29 30 30 30 30 30 29 29 30 29 29 29 30 30 30 31 31 32 32 32 32 32 33 34 34 34 34 34 35 35 35 34 35 35 35 36
27 29 28 26 26 27 28 28 29 30 30 29 30 30 30 30 30 30 30 30 30 30 31 31 31 31 31 31 31 31 32 32 32 32 33 33 33 33 33 33 33 34 34 34
28 29 29 27 26 27 29 29 28 30 30 29 30 30 29 30 31 31 31 30 30 31 31 31 30 30 30 30 31 30 30 29 29 30 30 30 30 30 30 31 31 32 32 33
27 29 28 27 28 28 29 29 29 29 30 30 30 30 29 30 30 31 31 31 31 31 30 30 30 30 29 29 29 28 28 27 27 27 27 28 27 27 27 28 29 30 30 30
27 27 26 26 27 28 28 29 29 29 29 29 29 29 30 31 30 30 31 31 31 30 30 29 28 28 27 27 27 27 26 25 25 25 25 25 25 24 25 25 26 26 27 27
27 26 26 27 28 28 28 28 28 27 27 27 28 28 30 30 31 31 30 30 30 30 29 28 27 27 26 26 26 25 24 24 24 24 23 23 23 23 23 24 24 24 25 25
26 25 26 27 27 27 27 27 27 27 26 26 27 28 28 29 29 29 29 30 29 28 27 27 26 25 24 24 24 23 22 22 22 22 22 22 22 22 22 22 23 23 24 24
25 24 25 25 26 27 27 27 27 27 27 27 27 28 28 28 28 28 28 27 26 26 26 25 25 24 23 23 22 21 21 21 21 21 21 21 21 21 21 21 22 22 22 22
24 24 24 24 24 25 25 26 26 27 27 28 28 28 28 28 27 26 25 24 24 23 23 23 23 23 22 22 21 21 21 21 20 20 20 20 20 20 20 20 20 20 20 21
23 23 23 23 23 24 24 24 25 25 26 27 27 27 27 26 24 23 22 20 20 20 20 20 21 21 21 21 20 20 19 19 19 19 19 19 19 19 19 19 19 19 19 20
21 21 21 21 22 22 23 23 23 23 24 24 24 24 23 22 20 19 18 18 18 18 18 18 19 20 20 19 19 19 18 18 19 18 18 18 18 17 17 17 17 18 18 19
19 20 20 20 20 21 22 22 22 22 22 22 21 20 19 18 17 17 17 17 16 16 16 16 16 17 17 18 18 18 18 18 17 17 17 17 16 16 16 16 16 17 18 18
18 19 19 20 20 20 20 20 20 20 20 19 19 18 17 16 15 15 16 15 15 14 15 15 15 15 15 16 16 17 17 16 16 16 16 15 15 15 15 15 16 16 17 16
17 18 19 20 20 20 19 19 18 17 17 17 17 16 16 15 15 15 15 15 14 14 14 14 14 14 15 15 15 16 16 15 15 15 15 14 14 14 14 15 15 16 15 15
17 18 18 18 18 18 18 17 16 15 15 15 15 15 15 14 14 14 14 14 14 14 14 14 14 14 14 14 14 15 15 14 14 14 14 14 14 14 15 15 15 15 15 14
17 17 17 17 17 16 16 15 15 15 15 14 14 14 14 14 13 13 13 13 13 14 14 14 14 13 13 13 13 13 13 13 13 13 13 13 13 14 14 14 14 14 14 14
17 17 17 16 16 15 15 14 14 14 14 14 14 14 13 13 13 13 13 13 14 14 14 13 13 13 12 12 12 12 12 12 12 12 12 13 13 13 13 13 13 13 14 14
17 17 16 16 16 15 14 14 14 14 14 14 14 13 13 13 13 13 13 13 13 13 13 13 13 13 12 12 11 11 11 11 12 12 12 12 12 13 13 13 13 13 13 14
17 17 17 16 16 15 15 15 15 15 15 15 14 14 13 13 13 13 13 13 13 13 13 13 13 13 12 12 11 11 11 12 12 12 12 12 12 12 13 13 13 13 13 13
18 17 17 17 16 16 16 16 15 15 15 15 14 14 13 13 13 13 13 13 13 12 12 12 12 12 12 12 12 12 13 12 12 12 12 12 12 12 12 12 12 12 12 12
18 18 18 17 17 16 16 16 16 15 15 15 15 14 14 13 13 13 13 13 13 12 12 12 12 12 12 12 12 13 13 13 12 12 12 12 12 12 12 12 12 12 12 12
18 18 17 17 16 16 16 16 16 15 15 15 15 15 14 14 14 14 13 13 12 12 12 12 13 13 13 13 13 13 13 13 13 12 13 13 12 13 12 12 11 11 11 12
17 17 16 16 16 16 16 16 15 15 14 13 13 14 14 14 14 14 13 13 12 12 12 13 13 13 13 13 13 13 13 13 13 13 13 13 13 13 12 12 11 11 11 12
17 16 16 16 16 16 15 15 15 14 14 13 13 12 13 13 14 14 13 13 12 12 12 13 13 13 13 14 14 14 14 14 14 13 13 13 13 13 13 12 12 11 11 11
Wind_Direction
263 262 261 262 262 262 263 265 268 270 270 270 270 270 269 269 270 271 271 270 270 271 272 273 274 274 273 272 273 274 274 274 274 274 275 275 275 276 276 277 278 279 280 280
264 263 262 262 263 264 265 267 269 271 272 272 271 270 270 270 272 272 272 271 270 271 273 274 274 274 274 274 274 275 276 276 276 276 276 276 276 277 278 278 279 280 280 281
265 264 264 264 266 267 267 268 270 272 273 272 271 270 270 272 272 273 273 273 273 273 274 274 274 274 276 276 277 277 277 277 277 277 277 276 277 278 279 279 280 281 281 281
267 265 266 269 267 267 268 270 272 273 273 272 271 270 270 272 273 274 274 274 273 273 274 275 275 275 277 278 278 278 278 279 278 277 277 277 277 278 278 279 280 281 282 283
269 268 268 268 269 269 270 270 272 274 274 273 273 273 273 273 273 275 274 273 273 273 274 275 276 277 277 278 278 278 279 279 278 278 278 278 278 278 279 280 281 282 283 284
271 271 271 271 271 270 272 273 273 273 273 273 272 273 274 274 274 275 275 274 273 274 275 275 276 277 277 277 278 278 278 278 278 279 280 279 279 280 280 281 282 283 284 285
272 274 275 274 273 273 274 275 274 274 274 272 272 273 273 275 276 277 276 275 274 274 275 276 276 277 277 277 277 277 278 279 279 280 280 280 281 282 282 283 284 285 286 287
273 275 278 278 275 274 275 274 273 273 274 274 273 274 275 276 278 278 277 276 274 274 274 275 276 276 276 276 276 277 278 279 281 281 281 282 282 283 284 285 287 288 288 289
275 276 277 276 275 274 274 274 275 275 276 275 275 276 277 277 277 277 276 275 275 274 273 274 274 274 275 275 275 276 277 279 281 282 282 282 282 284 287 288 289 289 290 291
275 275 275 275 273 273 272 273 274 275 275 276 277 278 278 278 278 277 276 275 274 273 271 271 272 272 273 273 274 275 277 279 281 282 281 281 283 286 289 291 291 292 293 293
277 277 276 277 276 273 272 273 273 275 275 276 279 280 280 280 280 278 277 275 273 271 270 269 268 269 270 272 273 274 276 278 280 282 281 281 285 288 290 292 293 294 296 295
280 279 278 279 278 274 274 275 276 276 276 276 279 280 281 282 281 279 278 275 272 269 268 267 266 267 268 269 270 273 276 277 278 281 281 283 287 290 291 293 295 298 300 300
280 279 280 281 279 276 276 278 279 279 278 278 279 280 281 281 279 278 277 275 271 268 265 265 264 264 265 266 269 273 275 276 278 281 282 283 287 289 291 294 297 300 301 303
281 280 280 282 283 279 279 280 283 283 282 282 280 280 280 277 275 273 273 272 270 268 266 265 265 264 263 265 268 271 274 276 278 280 281 282 285 287 290 293 297 301 303 304
281 282 283 284 285 283 282 283 284 283 283 283 282 281 279 274 271 271 272 271 270 269 268 267 267 265 264 265 268 271 274 275 276 279 281 281 282 285 288 291 295 300 303 305
283 283 283 284 286 287 285 284 283 283 283 282 282 280 276 273 271 272 272 270 268 268 268 267 268 266 266 268 269 272 273 274 276 278 279 281 283 285 287 291 295 299 302 305
283 283 283 285 288 289 288 284 282 282 283 282 280 279 275 273 273 272 270 266 264 265 266 267 268 269 271 271 271 272 274 274 276 278 279 280 283 286 289 292 295 298 300 304
284 284 285 287 288 289 287 283 281 282 283 283 282 280 276 272 271 270 268 265 264 265 266 266 269 271 272 272 272 274 275 276 277 277 279 281 283 286 288 291 295 296 298 303
286 287 286 285 287 289 286 281 278 278 280 282 281 279 275 271 269 267 266 265 265 265 265 266 269 271 272 273 274 275 276 277 278 279 280 282 284 287 289 292 293 296 298 302
289 291 290 287 285 285 284 281 279 279 281 282 281 277 273 270 268 266 265 266 265 265 265 266 268 270 272 275 275 276 278 279 278 280 282 284 285 288 290 292 294 295 299 303
290 291 289 287 284 281 281 281 279 280 281 281 278 275 270 266 266 266 265 266 266 267 266 265 265 266 268 272 275 280 283 282 281 282 282 283 285 288 290 293 293 297 299 302
290 290 288 286 282 279 279 278 278 277 279 280 278 272 267 264 264 264 264 267 269 269 267 266 265 265 267 271 275 280 282 283 284 284 284 282 284 288 291 291 292 296 299 301
288 288 288 286 283 280 280 282 280 277 277 279 278 271 264 261 260 260 262 265 266 266 266 265 263 262 264 270 275 278 280 283 283 282 283 281 283 286 290 293 294 296 299 301
287 288 288 286 283 281 282 283 282 280 277 275 274 269 263 261 261 260 262 263 264 264 265 262 261 262 266 271 274 277 278 279 279 279 280 279 282 285 288 292 295 297 299 302
286 287 287 284 281 280 280 280 281 281 279 275 270 266 264 262 260 260 262 264 265 264 264 263 261 263 268 272 273 273 276 276 275 276 278 278 279 282 286 288 291 296 298 302
284 284 284 282 281 281 281 280 280 280 277 273 271 267 264 262 262 263 263 265 265 265 267 268 267 266 268 271 271 272 274 275 275 275 276 276 276 279 282 286 289 293 298 302
283 283 282 280 280 281 282 281 280 278 274 271 270 268 266 263 263 262 262 263 264 266 269 270 269 268 269 269 270 270 272 275 276 276 277 277 275 276 279 283 287 289 294 301